EFW7SN LCPH-EGKK

Flight info

Callsign EFW7SN
Flight time 4h 25m
Altitude 32000
Route GENOS1W GENOS DCT TOSKA DCT VAXOS DCT KPC DCT AKINA DCT AGISA DCT TALAS DCT ENFAR DCT ELTIB/N0448F340 DCT GIMIX DCT ERKIR DCT KPT L856 RAVED Y112 HOC DCT LUL DCT RLP DCT ROTSI DCT KOTUN DCT NINAL DCT KESAX DCT KUNAV KUNAV1G
Aircraft A321/M-SDE3FGIJ1KRWXY/SB1

Departure

Time 2026-04-14 17:03
Airport Paphos International Airport (LCPH)

Arrival

Time 2026-04-14 21:28
Airport London Gatwick Airport (EGKK)
Time Latitude Longitude Altitude Speed Heading
2026-04-14 16:16 34.71299 32.48640 46 ft 0 kts 155°
2026-04-14 16:51 34.71303 32.48638 46 ft 3 kts 154°
2026-04-14 16:51 34.71326 32.48621 44 ft 4 kts 137°
2026-04-14 16:52 34.71343 32.48597 46 ft 4 kts 118°
2026-04-14 16:52 34.71353 32.48567 43 ft 4 kts 98°
2026-04-14 16:52 34.71353 32.48535 41 ft 4 kts 73°
2026-04-14 16:52 34.71350 32.48524 42 ft 0 kts 65°
2026-04-14 16:55 34.71351 32.48525 46 ft 0 kts 65°
2026-04-14 16:56 34.71352 32.48530 46 ft 2 kts 65°
2026-04-14 16:56 34.71360 32.48549 43 ft 3 kts 65°
2026-04-14 16:56 34.71369 32.48574 46 ft 5 kts 65°
2026-04-14 16:56 34.71385 32.48615 46 ft 7 kts 65°
2026-04-14 16:57 34.71412 32.48686 45 ft 10 kts 65°
2026-04-14 16:57 34.71443 32.48767 46 ft 11 kts 65°
2026-04-14 16:57 34.71474 32.48849 46 ft 11 kts 65°
2026-04-14 16:57 34.71506 32.48932 46 ft 11 kts 65°
2026-04-14 16:58 34.71561 32.48986 46 ft 10 kts 22°
2026-04-14 16:58 34.71624 32.49016 47 ft 9 kts 25°
2026-04-14 16:58 34.71633 32.49092 47 ft 14 kts 111°
2026-04-14 16:58 34.71592 32.49226 46 ft 18 kts 110°
2026-04-14 16:59 34.71546 32.49375 44 ft 19 kts 110°
2026-04-14 16:59 34.71548 32.49462 41 ft 9 kts 52°
2026-04-14 16:59 34.71586 32.49519 44 ft 8 kts 51°
2026-04-14 16:59 34.71624 32.49575 45 ft 10 kts 50°
2026-04-14 17:00 34.71635 32.49659 45 ft 11 kts 107°
2026-04-14 17:00 34.71610 32.49743 44 ft 11 kts 110°
2026-04-14 17:00 34.71592 32.49801 45 ft 11 kts 110°
2026-04-14 17:00 34.71556 32.49918 45 ft 11 kts 110°
2026-04-14 17:01 34.71523 32.49985 45 ft 8 kts 153°
2026-04-14 17:01 34.71491 32.49969 45 ft 8 kts 224°
2026-04-14 17:01 34.71438 32.49895 44 ft 10 kts 229°
2026-04-14 17:01 34.71411 32.49852 44 ft 9 kts 244°
2026-04-14 17:02 34.71423 32.49774 43 ft 10 kts 294°
2026-04-14 17:02 34.71471 32.49624 42 ft 46 kts 290°
2026-04-14 17:02 34.71664 32.48988 46 ft 113 kts 290°
2026-04-14 17:02 34.72003 32.47885 52 ft 166 kts 291°
2026-04-14 17:03 34.72403 32.46567 799 ft 162 kts 288°
2026-04-14 17:03 34.72467 32.45161 1356 ft 176 kts 262°
2026-04-14 17:03 34.72159 32.43641 1574 ft 192 kts 255°
2026-04-14 17:03 34.71747 32.42006 1723 ft 213 kts 254°
2026-04-14 17:04 34.71297 32.40226 1850 ft 232 kts 254°
2026-04-14 17:04 34.70807 32.38250 1999 ft 254 kts 255°
2026-04-14 17:04 34.70306 32.36151 2381 ft 267 kts 254°
2026-04-14 17:04 34.69794 32.33954 2883 ft 274 kts 255°
2026-04-14 17:05 34.69282 32.31694 3464 ft 277 kts 255°
2026-04-14 17:05 34.68775 32.29407 4050 ft 281 kts 254°
2026-04-14 17:05 34.68279 32.27143 4672 ft 281 kts 254°
2026-04-14 17:05 34.67777 32.24840 5356 ft 279 kts 254°
2026-04-14 17:06 34.67282 32.22570 5925 ft 282 kts 255°
2026-04-14 17:06 34.66777 32.20258 6526 ft 283 kts 254°
2026-04-14 17:06 34.66277 32.17915 7046 ft 286 kts 257°
2026-04-14 17:06 34.66113 32.15521 7568 ft 288 kts 272°
2026-04-14 17:07 34.66284 32.13081 8130 ft 289 kts 275°
2026-04-14 17:07 34.66461 32.10639 8694 ft 290 kts 275°
2026-04-14 17:07 34.66632 32.08226 9284 ft 290 kts 275°
2026-04-14 17:07 34.66807 32.05764 9854 ft 291 kts 275°
2026-04-14 17:08 34.66981 32.03304 10392 ft 292 kts 275°
2026-04-14 17:08 34.67155 32.00817 10573 ft 307 kts 275°
2026-04-14 17:08 34.67340 31.98146 10702 ft 323 kts 275°
2026-04-14 17:08 34.67529 31.95382 10824 ft 338 kts 275°
2026-04-14 17:09 34.67729 31.92474 10959 ft 352 kts 275°
2026-04-14 17:09 34.67993 31.89459 11149 ft 362 kts 280°
2026-04-14 17:09 34.68482 31.86461 11530 ft 366 kts 281°
2026-04-14 17:09 34.68973 31.83407 11991 ft 368 kts 280°
2026-04-14 17:10 34.69460 31.80340 12461 ft 370 kts 280°
2026-04-14 17:10 34.69939 31.77285 12931 ft 372 kts 280°
2026-04-14 17:10 34.70425 31.74182 13410 ft 373 kts 279°
2026-04-14 17:10 34.70912 31.71062 13869 ft 375 kts 279°
2026-04-14 17:11 34.71397 31.67967 14291 ft 377 kts 279°
2026-04-14 17:11 34.71895 31.64820 14738 ft 377 kts 280°
2026-04-14 17:11 34.72394 31.61677 15212 ft 378 kts 280°
2026-04-14 17:11 34.72886 31.58569 15676 ft 377 kts 280°
2026-04-14 17:12 34.73383 31.55422 16145 ft 377 kts 280°
2026-04-14 17:12 34.73870 31.52317 16593 ft 377 kts 280°
2026-04-14 17:12 34.74359 31.49185 17053 ft 377 kts 279°
2026-04-14 17:12 34.74849 31.46039 17402 ft 379 kts 280°
2026-04-14 17:13 34.75339 31.42873 17772 ft 381 kts 280°
2026-04-14 17:13 34.75826 31.39730 18183 ft 381 kts 280°
2026-04-14 17:13 34.76321 31.36540 18567 ft 382 kts 280°
2026-04-14 17:13 34.76807 31.33390 18878 ft 383 kts 280°
2026-04-14 17:14 34.77301 31.30186 19178 ft 385 kts 280°
2026-04-14 17:14 34.77797 31.26976 19475 ft 387 kts 280°
2026-04-14 17:14 34.78297 31.23745 19778 ft 388 kts 280°
2026-04-14 17:14 34.78793 31.20543 20091 ft 390 kts 280°
2026-04-14 17:15 34.79295 31.17280 20395 ft 392 kts 280°
2026-04-14 17:15 34.79796 31.14005 20695 ft 393 kts 280°
2026-04-14 17:15 34.80291 31.10762 20980 ft 395 kts 280°
2026-04-14 17:15 34.80791 31.07453 21271 ft 397 kts 280°
2026-04-14 17:16 34.81294 31.04125 21553 ft 399 kts 280°
2026-04-14 17:16 34.81801 31.00787 21836 ft 401 kts 280°
2026-04-14 17:16 34.82307 30.97472 22114 ft 403 kts 280°
2026-04-14 17:16 34.82820 30.94103 22391 ft 405 kts 280°
2026-04-14 17:17 34.83333 30.90717 22683 ft 406 kts 280°
2026-04-14 17:17 34.83839 30.87368 22956 ft 408 kts 280°
2026-04-14 17:17 34.84351 30.83946 23220 ft 409 kts 280°
2026-04-14 17:17 34.84866 30.80515 23480 ft 411 kts 280°
2026-04-14 17:18 34.85378 30.77117 23732 ft 413 kts 280°
2026-04-14 17:18 34.85898 30.73656 23957 ft 415 kts 280°
2026-04-14 17:18 34.86411 30.70232 24190 ft 416 kts 280°
2026-04-14 17:18 34.86936 30.66719 24433 ft 417 kts 280°
2026-04-14 17:19 34.87445 30.63281 24671 ft 418 kts 280°
2026-04-14 17:19 34.87962 30.59782 24914 ft 418 kts 279°
2026-04-14 17:19 34.88476 30.56322 25147 ft 419 kts 279°
2026-04-14 17:19 34.88998 30.52807 25379 ft 420 kts 279°
2026-04-14 17:20 34.89517 30.49285 25610 ft 421 kts 279°
2026-04-14 17:20 34.90027 30.45802 25838 ft 422 kts 279°
2026-04-14 17:20 34.90542 30.42258 26064 ft 423 kts 279°
2026-04-14 17:20 34.91059 30.38716 26295 ft 424 kts 279°
2026-04-14 17:21 34.91573 30.35212 26534 ft 424 kts 279°
2026-04-14 17:21 34.92096 30.31653 26743 ft 424 kts 279°
2026-04-14 17:21 34.92611 30.28138 26940 ft 425 kts 279°
2026-04-14 17:21 34.93131 30.24564 27128 ft 426 kts 279°
2026-04-14 17:22 34.93639 30.21048 27307 ft 426 kts 279°
2026-04-14 17:22 34.94158 30.17475 27475 ft 427 kts 279°
2026-04-14 17:22 34.94678 30.13906 27705 ft 426 kts 279°
2026-04-14 17:22 34.95195 30.10337 27964 ft 425 kts 279°
2026-04-14 17:23 34.95698 30.06825 28207 ft 424 kts 279°
2026-04-14 17:23 34.96201 30.03281 28454 ft 423 kts 279°
2026-04-14 17:23 34.96662 29.99734 28695 ft 421 kts 275°
2026-04-14 17:23 34.96833 29.96214 28925 ft 420 kts 272°
2026-04-14 17:24 34.96980 29.92642 29164 ft 419 kts 272°
2026-04-14 17:24 34.97125 29.89126 29402 ft 418 kts 272°
2026-04-14 17:24 34.97273 29.85581 29632 ft 417 kts 273°
2026-04-14 17:24 34.97422 29.82039 29871 ft 416 kts 272°
2026-04-14 17:25 34.97564 29.78550 30095 ft 415 kts 272°
2026-04-14 17:25 34.97706 29.75026 30311 ft 414 kts 272°
2026-04-14 17:25 34.97847 29.71511 30505 ft 413 kts 272°
2026-04-14 17:25 34.97983 29.68047 30696 ft 412 kts 272°
2026-04-14 17:26 34.98120 29.64551 30894 ft 411 kts 272°
2026-04-14 17:26 34.98257 29.61062 31070 ft 410 kts 272°
2026-04-14 17:26 34.98392 29.57632 31247 ft 409 kts 272°
2026-04-14 17:26 34.98526 29.54148 31429 ft 408 kts 272°
2026-04-14 17:27 34.98658 29.50681 31619 ft 408 kts 272°
2026-04-14 17:27 34.98786 29.47266 31790 ft 407 kts 272°
2026-04-14 17:27 34.98913 29.43805 31970 ft 406 kts 272°
2026-04-14 17:27 34.99041 29.40392 32134 ft 406 kts 272°
2026-04-14 17:28 34.99385 29.33509 32190 ft 405 kts 277°
2026-04-14 17:28 35.00674 29.26825 32189 ft 406 kts 282°
2026-04-14 17:29 35.02050 29.20110 32176 ft 407 kts 282°
2026-04-14 17:29 35.03411 29.13454 32185 ft 407 kts 282°
2026-04-14 17:30 35.04783 29.06753 32192 ft 407 kts 282°
2026-04-14 17:30 35.06151 29.00040 32198 ft 408 kts 282°
2026-04-14 17:31 35.07516 28.93294 32206 ft 408 kts 282°
2026-04-14 17:31 35.08871 28.86565 32207 ft 409 kts 281°
2026-04-14 17:32 35.10229 28.79807 32209 ft 409 kts 282°
2026-04-14 17:32 35.11585 28.73071 32212 ft 409 kts 281°
2026-04-14 17:33 35.12931 28.66327 32218 ft 409 kts 281°
2026-04-14 17:34 35.14951 28.56201 32215 ft 410 kts 281°
2026-04-14 17:34 35.16288 28.49442 32214 ft 410 kts 281°
2026-04-14 17:35 35.17627 28.42678 32215 ft 410 kts 281°
2026-04-14 17:35 35.18972 28.35905 32209 ft 411 kts 281°
2026-04-14 17:36 35.20312 28.29091 32200 ft 412 kts 281°
2026-04-14 17:36 35.21640 28.22303 32206 ft 412 kts 281°
2026-04-14 17:37 35.22983 28.15449 32208 ft 413 kts 281°
2026-04-14 17:37 35.24309 28.08646 32208 ft 413 kts 281°
2026-04-14 17:38 35.25636 28.01821 32198 ft 414 kts 281°
2026-04-14 17:38 35.26968 27.94910 32197 ft 416 kts 281°
2026-04-14 17:39 35.28294 27.88044 32195 ft 417 kts 281°
2026-04-14 17:39 35.29634 27.81116 32203 ft 417 kts 281°
2026-04-14 17:40 35.30958 27.74203 32210 ft 418 kts 281°
2026-04-14 17:40 35.32273 27.67298 32211 ft 418 kts 281°
2026-04-14 17:41 35.33587 27.60384 32224 ft 418 kts 281°
2026-04-14 17:41 35.34909 27.53428 32222 ft 418 kts 281°
2026-04-14 17:42 35.36220 27.46521 32225 ft 417 kts 281°
2026-04-14 17:42 35.37529 27.39553 32215 ft 418 kts 281°
2026-04-14 17:43 35.38826 27.32637 32213 ft 418 kts 281°
2026-04-14 17:43 35.40124 27.25710 32214 ft 418 kts 281°
2026-04-14 17:44 35.41905 27.18902 32214 ft 423 kts 295°
2026-04-14 17:44 35.43520 27.15920 32215 ft 428 kts 306°
2026-04-14 17:44 35.45659 27.13321 32199 ft 435 kts 317°
2026-04-14 17:44 35.48226 27.11282 32188 ft 444 kts 329°
2026-04-14 17:45 35.51048 27.09674 32189 ft 446 kts 330°
2026-04-14 17:45 35.56690 27.06496 32189 ft 447 kts 330°
2026-04-14 17:46 35.62311 27.03317 32189 ft 448 kts 330°
2026-04-14 17:46 35.67989 27.00088 32203 ft 448 kts 330°
2026-04-14 17:47 35.73634 26.96879 32223 ft 448 kts 329°
2026-04-14 17:47 35.79292 26.93659 32226 ft 448 kts 329°
2026-04-14 17:48 35.84963 26.90417 32223 ft 447 kts 329°
2026-04-14 17:48 35.90603 26.87201 32226 ft 447 kts 329°
2026-04-14 17:49 35.96227 26.83988 32224 ft 448 kts 329°
2026-04-14 17:49 36.01892 26.80736 32240 ft 448 kts 328°
2026-04-14 17:50 36.07523 26.77506 32234 ft 448 kts 328°
2026-04-14 17:50 36.13158 26.74274 32227 ft 447 kts 328°
2026-04-14 17:51 36.18824 26.71014 32225 ft 447 kts 328°
2026-04-14 17:51 36.24449 26.67774 32245 ft 447 kts 328°
2026-04-14 17:52 36.30097 26.64512 32238 ft 446 kts 328°
2026-04-14 17:52 36.35696 26.61275 32232 ft 446 kts 328°
2026-04-14 17:53 36.41314 26.58024 32228 ft 446 kts 328°
2026-04-14 17:53 36.46946 26.54755 32234 ft 446 kts 328°
2026-04-14 17:54 36.51635 26.52024 32248 ft 446 kts 328°
2026-04-14 17:54 36.57237 26.48760 32237 ft 446 kts 328°
2026-04-14 17:55 36.62873 26.45469 32238 ft 445 kts 328°
2026-04-14 17:55 36.68447 26.42217 32235 ft 445 kts 328°
2026-04-14 17:56 36.74071 26.38936 32236 ft 445 kts 328°
2026-04-14 17:56 36.79640 26.35678 32247 ft 444 kts 328°
2026-04-14 17:57 36.85246 26.32388 32243 ft 444 kts 328°
2026-04-14 17:57 36.90813 26.29119 32244 ft 443 kts 328°
2026-04-14 17:58 36.96399 26.25821 32251 ft 442 kts 326°
2026-04-14 17:58 37.01382 26.21510 32266 ft 431 kts 315°
2026-04-14 17:59 37.06024 26.16839 32257 ft 430 kts 315°
2026-04-14 17:59 37.10706 26.12142 32253 ft 430 kts 315°
2026-04-14 18:00 37.15359 26.07459 32251 ft 429 kts 315°
2026-04-14 18:00 37.22322 26.00429 32249 ft 429 kts 315°
2026-04-14 18:01 37.26963 25.95742 32250 ft 429 kts 315°
2026-04-14 18:01 37.31594 25.91045 32255 ft 429 kts 314°
2026-04-14 18:02 37.36260 25.86308 32246 ft 430 kts 314°
2026-04-14 18:02 37.40898 25.81593 32244 ft 430 kts 314°
2026-04-14 18:03 37.45560 25.76854 32242 ft 430 kts 314°
2026-04-14 18:03 37.50198 25.72130 32232 ft 430 kts 314°
2026-04-14 18:04 37.54839 25.67389 32229 ft 430 kts 314°
2026-04-14 18:04 37.59489 25.62634 32238 ft 430 kts 314°
2026-04-14 18:05 37.64134 25.57870 32228 ft 431 kts 314°
2026-04-14 18:05 37.68781 25.53102 32224 ft 432 kts 314°
2026-04-14 18:06 37.73465 25.48292 32224 ft 432 kts 314°
2026-04-14 18:06 37.78106 25.43508 32228 ft 432 kts 314°
2026-04-14 18:07 37.82788 25.38677 32229 ft 433 kts 314°
2026-04-14 18:07 37.87437 25.33879 32229 ft 433 kts 314°
2026-04-14 18:08 37.92084 25.29071 32232 ft 433 kts 314°
2026-04-14 18:08 37.96760 25.24220 32225 ft 434 kts 314°
2026-04-14 18:09 38.01408 25.19398 32226 ft 434 kts 314°
2026-04-14 18:09 38.06075 25.14548 32228 ft 434 kts 314°
2026-04-14 18:10 38.10747 25.09674 32229 ft 434 kts 314°
2026-04-14 18:10 38.15430 25.04786 32241 ft 434 kts 314°
2026-04-14 18:11 38.20075 24.99934 32237 ft 434 kts 314°
2026-04-14 18:11 38.24744 24.95042 32226 ft 434 kts 314°
2026-04-14 18:12 38.29387 24.90162 32219 ft 434 kts 314°
2026-04-14 18:12 38.34032 24.85273 32218 ft 434 kts 314°
2026-04-14 18:13 38.38710 24.80362 32217 ft 435 kts 314°
2026-04-14 18:13 38.43370 24.75452 32226 ft 435 kts 314°
2026-04-14 18:14 38.48000 24.70548 32221 ft 435 kts 314°
2026-04-14 18:14 38.52682 24.65603 32222 ft 435 kts 314°
2026-04-14 18:15 38.57321 24.60688 32211 ft 435 kts 314°
2026-04-14 18:15 38.61989 24.55731 32214 ft 435 kts 314°
2026-04-14 18:16 38.66627 24.50794 32215 ft 435 kts 314°
2026-04-14 18:16 38.71258 24.45858 32235 ft 434 kts 313°
2026-04-14 18:17 38.75879 24.40923 32223 ft 433 kts 313°
2026-04-14 18:17 38.80508 24.35978 32231 ft 432 kts 313°
2026-04-14 18:18 38.85115 24.31048 32218 ft 432 kts 313°
2026-04-14 18:18 38.89733 24.26084 32219 ft 432 kts 313°
2026-04-14 18:19 38.94326 24.21137 32216 ft 432 kts 313°
2026-04-14 18:19 38.98917 24.16191 32223 ft 432 kts 313°
2026-04-14 18:20 39.03533 24.11216 32215 ft 432 kts 313°
2026-04-14 18:20 39.08127 24.06260 32221 ft 432 kts 313°
2026-04-14 18:21 39.12722 24.01292 32212 ft 432 kts 313°
2026-04-14 18:21 39.17347 23.96276 32210 ft 433 kts 313°
2026-04-14 18:22 39.21937 23.91284 32202 ft 433 kts 313°
2026-04-14 18:22 39.26527 23.86288 32213 ft 433 kts 313°
2026-04-14 18:23 39.31127 23.81277 32198 ft 434 kts 313°
2026-04-14 18:23 39.35762 23.76217 32196 ft 434 kts 313°
2026-04-14 18:24 39.40362 23.71181 32203 ft 435 kts 313°
2026-04-14 18:24 39.44977 23.66114 32199 ft 436 kts 313°
2026-04-14 18:25 39.49626 23.61009 32202 ft 437 kts 313°
2026-04-14 18:25 39.54246 23.55937 32218 ft 437 kts 313°
2026-04-14 18:26 39.58868 23.50853 32221 ft 437 kts 312°
2026-04-14 18:26 39.63512 23.45724 32225 ft 437 kts 312°
2026-04-14 18:27 39.68121 23.40608 32228 ft 438 kts 312°
2026-04-14 18:27 39.72751 23.35474 32216 ft 439 kts 312°
2026-04-14 18:28 39.77483 23.30386 32213 ft 441 kts 314°
2026-04-14 18:28 39.82285 23.25461 32231 ft 442 kts 314°
2026-04-14 18:29 39.87109 23.20512 32231 ft 442 kts 314°
2026-04-14 18:29 39.91925 23.15503 32232 ft 441 kts 314°
2026-04-14 18:30 39.96690 23.10486 32241 ft 441 kts 314°
2026-04-14 18:30 40.01460 23.05474 32234 ft 442 kts 314°
2026-04-14 18:31 40.06256 23.00439 32239 ft 442 kts 314°
2026-04-14 18:31 40.11027 22.95429 32240 ft 441 kts 314°
2026-04-14 18:32 40.15797 22.90399 32239 ft 440 kts 314°
2026-04-14 18:32 40.20555 22.85381 32237 ft 440 kts 314°
2026-04-14 18:33 40.25339 22.80319 32241 ft 440 kts 314°
2026-04-14 18:34 40.34855 22.70225 32250 ft 439 kts 314°
2026-04-14 18:34 40.39583 22.65192 32245 ft 439 kts 313°
2026-04-14 18:35 40.44318 22.60135 32238 ft 438 kts 313°
2026-04-14 18:35 40.49026 22.55097 32240 ft 438 kts 313°
2026-04-14 18:36 40.53767 22.50026 32238 ft 438 kts 313°
2026-04-14 18:36 40.58479 22.44978 32251 ft 438 kts 313°
2026-04-14 18:37 40.63195 22.39919 32237 ft 439 kts 313°
2026-04-14 18:37 40.67942 22.34807 32235 ft 440 kts 313°
2026-04-14 18:38 40.72668 22.29710 32232 ft 440 kts 313°
2026-04-14 18:38 40.77402 22.24597 32233 ft 440 kts 313°
2026-04-14 18:39 40.82118 22.19485 32235 ft 440 kts 313°
2026-04-14 18:39 40.86866 22.14338 32254 ft 440 kts 313°
2026-04-14 18:40 40.91574 22.09233 32249 ft 439 kts 313°
2026-04-14 18:40 40.96304 22.04079 32228 ft 439 kts 313°
2026-04-14 18:41 41.01009 21.98937 32223 ft 440 kts 313°
2026-04-14 18:41 41.05715 21.93787 32209 ft 439 kts 311°
2026-04-14 18:42 41.09634 21.87840 32205 ft 424 kts 297°
2026-04-14 18:42 41.12944 21.81332 32218 ft 424 kts 297°
2026-04-14 18:43 41.16235 21.74893 32191 ft 423 kts 297°
2026-04-14 18:43 41.19537 21.68428 32178 ft 423 kts 297°
2026-04-14 18:44 41.22826 21.61959 32180 ft 423 kts 297°
2026-04-14 18:44 41.26120 21.55443 32180 ft 424 kts 296°
2026-04-14 18:45 41.29398 21.48940 32165 ft 424 kts 296°
2026-04-14 18:45 41.32680 21.42442 32169 ft 424 kts 296°
2026-04-14 18:46 41.35411 21.37007 32161 ft 424 kts 296°
2026-04-14 18:46 41.38695 21.30470 32158 ft 423 kts 296°
2026-04-14 18:47 41.41964 21.23954 32157 ft 424 kts 296°
2026-04-14 18:47 41.45249 21.17402 32173 ft 424 kts 296°
2026-04-14 18:48 41.48507 21.10886 32168 ft 423 kts 296°
2026-04-14 18:48 41.51747 21.04366 32159 ft 423 kts 296°
2026-04-14 18:49 41.55020 20.97792 32151 ft 423 kts 296°
2026-04-14 18:49 41.58270 20.91237 32150 ft 423 kts 296°
2026-04-14 18:50 41.61504 20.84701 32143 ft 423 kts 296°
2026-04-14 18:50 41.64733 20.78171 32135 ft 424 kts 296°
2026-04-14 18:51 41.67996 20.71543 32117 ft 425 kts 295°
2026-04-14 18:51 41.71224 20.64956 32118 ft 426 kts 295°
2026-04-14 18:52 41.74490 20.58294 32107 ft 427 kts 295°
2026-04-14 18:52 41.78005 20.51880 32123 ft 436 kts 306°
2026-04-14 18:53 41.82261 20.46059 32123 ft 438 kts 307°
2026-04-14 18:53 41.86509 20.40185 32107 ft 438 kts 306°
2026-04-14 18:54 41.90735 20.34307 32107 ft 439 kts 306°
2026-04-14 18:54 41.95004 20.28381 32094 ft 440 kts 306°
2026-04-14 18:55 41.99244 20.22489 32100 ft 440 kts 306°
2026-04-14 18:55 42.03483 20.16597 32100 ft 439 kts 306°
2026-04-14 18:56 42.07743 20.10667 32106 ft 438 kts 307°
2026-04-14 18:56 42.11954 20.04777 32092 ft 438 kts 307°
2026-04-14 18:57 42.16165 19.98870 32093 ft 438 kts 307°
2026-04-14 18:57 42.20380 19.92958 32091 ft 438 kts 307°
2026-04-14 18:58 42.24606 19.87016 32096 ft 438 kts 307°
2026-04-14 18:58 42.28801 19.81101 32110 ft 438 kts 307°
2026-04-14 18:59 42.33027 19.75131 32101 ft 437 kts 307°
2026-04-14 18:59 42.37221 19.69201 32097 ft 438 kts 307°
2026-04-14 19:00 42.41429 19.63236 32072 ft 439 kts 307°
2026-04-14 19:00 42.45635 19.57255 32076 ft 440 kts 307°
2026-04-14 19:01 42.49865 19.51231 32063 ft 440 kts 307°
2026-04-14 19:01 42.54069 19.45234 32085 ft 440 kts 307°
2026-04-14 19:02 42.58296 19.39192 32081 ft 440 kts 307°
2026-04-14 19:02 42.62504 19.33169 32073 ft 440 kts 307°
2026-04-14 19:03 42.66697 19.27152 32069 ft 440 kts 307°
2026-04-14 19:03 42.70918 19.21083 32087 ft 440 kts 307°
2026-04-14 19:04 42.75093 19.15052 32075 ft 440 kts 307°
2026-04-14 19:04 42.79279 19.09005 32089 ft 440 kts 308°
2026-04-14 19:05 42.83498 19.02908 32079 ft 441 kts 308°
2026-04-14 19:05 42.87681 18.96843 32073 ft 441 kts 308°
2026-04-14 19:06 42.91892 18.90716 32070 ft 441 kts 308°
2026-04-14 19:06 42.96076 18.84613 32070 ft 442 kts 308°
2026-04-14 19:07 43.00260 18.78487 32072 ft 442 kts 308°
2026-04-14 19:07 43.04463 18.72326 32076 ft 442 kts 308°
2026-04-14 19:08 43.08678 18.66162 32068 ft 443 kts 309°
2026-04-14 19:08 43.12862 18.60013 32072 ft 443 kts 309°
2026-04-14 19:09 43.17056 18.53828 32075 ft 443 kts 309°
2026-04-14 19:09 43.21240 18.47653 32068 ft 443 kts 309°
2026-04-14 19:10 43.25454 18.41428 32088 ft 443 kts 309°
2026-04-14 19:10 43.29633 18.35228 32077 ft 444 kts 309°
2026-04-14 19:11 43.33813 18.29014 32073 ft 445 kts 309°
2026-04-14 19:11 43.38000 18.22780 32070 ft 445 kts 309°
2026-04-14 19:12 43.42210 18.16496 32075 ft 445 kts 309°
2026-04-14 19:13 43.48486 18.07107 32074 ft 445 kts 309°
2026-04-14 19:13 43.52670 18.00834 32076 ft 445 kts 309°
2026-04-14 19:14 43.56843 17.94554 32091 ft 445 kts 309°
2026-04-14 19:14 43.61009 17.88273 32091 ft 445 kts 309°
2026-04-14 19:15 43.65198 17.81948 32092 ft 444 kts 309°
2026-04-14 19:15 43.69354 17.75658 32096 ft 444 kts 309°
2026-04-14 19:16 43.73506 17.69360 32090 ft 445 kts 309°
2026-04-14 19:16 43.77685 17.63005 32088 ft 445 kts 309°
2026-04-14 19:17 43.81828 17.56678 32092 ft 445 kts 309°
2026-04-14 19:17 43.85996 17.50315 32104 ft 445 kts 309°
2026-04-14 19:18 43.90147 17.43970 32098 ft 445 kts 309°
2026-04-14 19:18 43.94285 17.37624 32095 ft 444 kts 309°
2026-04-14 19:19 43.98435 17.31233 32097 ft 445 kts 309°
2026-04-14 19:19 44.02563 17.24864 32095 ft 445 kts 309°
2026-04-14 19:20 44.06714 17.18458 32104 ft 445 kts 308°
2026-04-14 19:20 44.10844 17.12063 32105 ft 445 kts 309°
2026-04-14 19:21 44.14967 17.05672 32095 ft 446 kts 309°
2026-04-14 19:21 44.19108 16.99223 32098 ft 446 kts 309°
2026-04-14 19:22 44.23234 16.92795 32104 ft 446 kts 309°
2026-04-14 19:22 44.27389 16.86292 32099 ft 447 kts 308°
2026-04-14 19:23 44.31537 16.79864 32099 ft 448 kts 311°
2026-04-14 19:23 44.36036 16.73776 32105 ft 450 kts 315°
2026-04-14 19:24 44.40661 16.67925 32115 ft 450 kts 315°
2026-04-14 19:24 44.45245 16.61992 32106 ft 450 kts 314°
2026-04-14 19:25 44.49770 16.55965 32113 ft 450 kts 314°
2026-04-14 19:25 44.54287 16.49892 32115 ft 451 kts 314°
2026-04-14 19:26 44.58805 16.43833 32128 ft 451 kts 314°
2026-04-14 19:26 44.63354 16.37741 32140 ft 451 kts 314°
2026-04-14 19:27 44.67883 16.31675 32141 ft 451 kts 314°
2026-04-14 19:27 44.72424 16.25566 32141 ft 451 kts 314°
2026-04-14 19:28 44.76941 16.19459 32142 ft 451 kts 314°
2026-04-14 19:28 44.81453 16.13355 32147 ft 451 kts 314°
2026-04-14 19:29 44.85970 16.07230 32148 ft 452 kts 314°
2026-04-14 19:29 44.90512 16.01063 32144 ft 452 kts 314°
2026-04-14 19:30 44.95043 15.94904 32144 ft 452 kts 313°
2026-04-14 19:30 44.99550 15.88749 32150 ft 453 kts 313°
2026-04-14 19:30 45.01821 15.85637 32287 ft 455 kts 313°
2026-04-14 19:31 45.04080 15.82540 32453 ft 456 kts 313°
2026-04-14 19:31 45.06371 15.79401 32675 ft 456 kts 313°
2026-04-14 19:31 45.08653 15.76271 32915 ft 455 kts 313°
2026-04-14 19:31 45.10932 15.73142 33167 ft 454 kts 313°
2026-04-14 19:32 45.13181 15.70052 33400 ft 453 kts 313°
2026-04-14 19:32 45.15439 15.66951 33629 ft 452 kts 313°
2026-04-14 19:32 45.17703 15.63839 33850 ft 451 kts 313°
2026-04-14 19:32 45.19932 15.60768 34069 ft 451 kts 313°
2026-04-14 19:33 45.22195 15.57639 34160 ft 451 kts 313°
2026-04-14 19:33 45.26662 15.51450 34138 ft 450 kts 313°
2026-04-14 19:34 45.33373 15.42118 34134 ft 449 kts 313°
2026-04-14 19:34 45.37847 15.35898 34149 ft 448 kts 313°
2026-04-14 19:35 45.42296 15.29707 34148 ft 449 kts 313°
2026-04-14 19:35 45.46742 15.23499 34166 ft 449 kts 313°
2026-04-14 19:36 45.50458 15.18294 34162 ft 449 kts 313°
2026-04-14 19:36 45.54892 15.12055 34168 ft 449 kts 312°
2026-04-14 19:37 45.59344 15.05773 34174 ft 449 kts 312°
2026-04-14 19:37 45.63792 14.99488 34177 ft 448 kts 312°
2026-04-14 19:38 45.68192 14.93262 34179 ft 447 kts 312°
2026-04-14 19:38 45.72618 14.86997 34183 ft 447 kts 312°
2026-04-14 19:39 45.77053 14.80704 34176 ft 447 kts 312°
2026-04-14 19:39 45.81444 14.74439 34176 ft 447 kts 312°
2026-04-14 19:40 45.85836 14.68157 34174 ft 447 kts 312°
2026-04-14 19:40 45.90262 14.61832 34176 ft 447 kts 312°
2026-04-14 19:41 45.94649 14.55548 34180 ft 447 kts 312°
2026-04-14 19:41 45.99044 14.49231 34171 ft 447 kts 312°
2026-04-14 19:42 46.03449 14.42876 34171 ft 447 kts 312°
2026-04-14 19:42 46.07827 14.36537 34199 ft 447 kts 311°
2026-04-14 19:43 46.12224 14.30172 34200 ft 446 kts 311°
2026-04-14 19:43 46.16587 14.23849 34181 ft 446 kts 311°
2026-04-14 19:44 46.20944 14.17506 34179 ft 445 kts 311°
2026-04-14 19:44 46.25288 14.11149 34172 ft 445 kts 311°
2026-04-14 19:45 46.29633 14.04796 34176 ft 445 kts 311°
2026-04-14 19:45 46.34005 13.98403 34170 ft 445 kts 311°
2026-04-14 19:46 46.38339 13.92040 34174 ft 445 kts 311°
2026-04-14 19:46 46.42689 13.85623 34170 ft 445 kts 311°
2026-04-14 19:47 46.47012 13.79242 34177 ft 445 kts 311°
2026-04-14 19:47 46.51341 13.72834 34169 ft 447 kts 311°
2026-04-14 19:48 46.55612 13.66243 34158 ft 446 kts 308°
2026-04-14 19:48 46.59684 13.59509 34163 ft 446 kts 308°
2026-04-14 19:49 46.63780 13.52672 34153 ft 447 kts 308°
2026-04-14 19:49 46.67882 13.45903 34172 ft 447 kts 308°
2026-04-14 19:50 46.71998 13.39141 34157 ft 447 kts 308°
2026-04-14 19:50 46.76113 13.32364 34156 ft 447 kts 308°
2026-04-14 19:51 46.80253 13.25526 34166 ft 448 kts 308°
2026-04-14 19:51 46.84346 13.18742 34166 ft 447 kts 308°
2026-04-14 19:52 46.88462 13.11880 34175 ft 447 kts 308°
2026-04-14 19:52 46.92540 13.05075 34171 ft 447 kts 308°
2026-04-14 19:53 46.96643 12.98215 34167 ft 447 kts 308°
2026-04-14 19:53 47.00723 12.91369 34178 ft 447 kts 308°
2026-04-14 19:54 47.06864 12.81058 34180 ft 447 kts 308°
2026-04-14 19:55 47.10940 12.74191 34200 ft 447 kts 308°
2026-04-14 19:55 47.15036 12.67275 34202 ft 447 kts 308°
2026-04-14 19:56 47.19103 12.60377 34218 ft 447 kts 308°
2026-04-14 19:56 47.23169 12.53473 34216 ft 447 kts 308°
2026-04-14 19:57 47.27231 12.46557 34229 ft 447 kts 309°
2026-04-14 19:57 47.31289 12.39629 34243 ft 447 kts 309°
2026-04-14 19:58 47.35366 12.32647 34242 ft 447 kts 309°
2026-04-14 19:58 47.39398 12.25729 34250 ft 446 kts 309°
2026-04-14 19:59 47.43449 12.18755 34255 ft 446 kts 309°
2026-04-14 19:59 47.47488 12.11787 34255 ft 446 kts 309°
2026-04-14 20:00 47.51444 12.04794 34259 ft 444 kts 303°
2026-04-14 20:00 47.54202 11.96699 34260 ft 440 kts 285°
2026-04-14 20:01 47.55501 11.87827 34260 ft 439 kts 280°
2026-04-14 20:01 47.56667 11.78990 34257 ft 440 kts 280°
2026-04-14 20:02 47.57835 11.70067 34256 ft 440 kts 281°
2026-04-14 20:02 47.58982 11.61200 34249 ft 440 kts 281°
2026-04-14 20:03 47.60131 11.52243 34249 ft 441 kts 281°
2026-04-14 20:03 47.61273 11.43367 34249 ft 441 kts 281°
2026-04-14 20:04 47.62418 11.34423 34244 ft 441 kts 282°
2026-04-14 20:04 47.63546 11.25491 34240 ft 442 kts 282°
2026-04-14 20:05 47.64674 11.16550 34237 ft 442 kts 282°
2026-04-14 20:05 47.65789 11.07600 34239 ft 443 kts 282°
2026-04-14 20:06 47.66896 10.98622 34245 ft 443 kts 282°
2026-04-14 20:06 47.68006 10.89601 34242 ft 443 kts 283°
2026-04-14 20:07 47.69108 10.80617 34250 ft 443 kts 282°
2026-04-14 20:07 47.70202 10.71640 34249 ft 443 kts 282°
2026-04-14 20:08 47.71289 10.62613 34254 ft 443 kts 282°
2026-04-14 20:08 47.72365 10.53636 34246 ft 443 kts 283°
2026-04-14 20:09 47.73431 10.44643 34245 ft 443 kts 283°
2026-04-14 20:09 47.74436 10.35564 34242 ft 445 kts 278°
2026-04-14 20:10 47.74401 10.26367 34247 ft 448 kts 271°
2026-04-14 20:10 47.74177 10.17091 34246 ft 448 kts 271°
2026-04-14 20:11 47.73957 10.07857 34233 ft 449 kts 271°
2026-04-14 20:11 47.73731 9.98561 34239 ft 449 kts 271°
2026-04-14 20:12 47.73503 9.89297 34247 ft 450 kts 271°
2026-04-14 20:12 47.73270 9.79987 34251 ft 450 kts 271°
2026-04-14 20:13 47.73024 9.70723 34245 ft 450 kts 272°
2026-04-14 20:13 47.72263 9.61485 34251 ft 455 kts 264°
2026-04-14 20:14 47.71118 9.52207 34258 ft 455 kts 263°
2026-04-14 20:14 47.69979 9.42981 34260 ft 456 kts 263°
2026-04-14 20:15 47.68833 9.33735 34252 ft 456 kts 263°
2026-04-14 20:15 47.67668 9.24448 34238 ft 457 kts 264°
2026-04-14 20:16 47.66502 9.15154 34241 ft 458 kts 264°
2026-04-14 20:16 47.65329 9.05905 34249 ft 458 kts 264°
2026-04-14 20:17 47.64140 8.96594 34248 ft 459 kts 264°
2026-04-14 20:17 47.62943 8.87306 34251 ft 459 kts 264°
2026-04-14 20:18 47.61736 8.78013 34235 ft 459 kts 264°
2026-04-14 20:18 47.60524 8.68727 34240 ft 460 kts 264°
2026-04-14 20:19 47.59297 8.59398 34244 ft 460 kts 264°
2026-04-14 20:19 47.58068 8.50073 34250 ft 460 kts 264°
2026-04-14 20:20 47.56830 8.40794 34248 ft 461 kts 264°
2026-04-14 20:20 47.55591 8.31520 34229 ft 461 kts 265°
2026-04-14 20:21 47.54334 8.22167 34235 ft 462 kts 265°
2026-04-14 20:21 47.53072 8.12871 34246 ft 462 kts 264°
2026-04-14 20:22 47.51804 8.03564 34245 ft 463 kts 265°
2026-04-14 20:22 47.50513 7.94186 34254 ft 463 kts 264°
2026-04-14 20:23 47.49225 7.84907 34244 ft 463 kts 264°
2026-04-14 20:23 47.47923 7.75599 34251 ft 463 kts 264°
2026-04-14 20:24 47.47194 7.66224 34257 ft 451 kts 279°
2026-04-14 20:24 47.48210 7.57281 34262 ft 440 kts 290°
2026-04-14 20:25 47.49686 7.48496 34221 ft 440 kts 291°
2026-04-14 20:25 47.50905 7.41166 34240 ft 440 kts 290°
2026-04-14 20:26 47.52354 7.32393 34252 ft 440 kts 290°
2026-04-14 20:26 47.53803 7.23569 34257 ft 440 kts 290°
2026-04-14 20:27 47.55248 7.14784 34261 ft 440 kts 290°
2026-04-14 20:27 47.56679 7.06000 34249 ft 439 kts 290°
2026-04-14 20:28 47.58100 6.97228 34258 ft 439 kts 290°
2026-04-14 20:28 47.59524 6.88420 34261 ft 438 kts 290°
2026-04-14 20:29 47.60930 6.79644 34265 ft 438 kts 290°
2026-04-14 20:29 47.62320 6.70896 34243 ft 438 kts 291°
2026-04-14 20:30 47.63721 6.62071 34251 ft 437 kts 290°
2026-04-14 20:30 47.65102 6.53341 34259 ft 437 kts 290°
2026-04-14 20:31 47.66482 6.44587 34266 ft 436 kts 290°
2026-04-14 20:31 47.67858 6.35796 34265 ft 436 kts 290°
2026-04-14 20:32 47.69263 6.27050 34240 ft 434 kts 293°
2026-04-14 20:32 47.71016 6.18554 34251 ft 430 kts 296°
2026-04-14 20:33 47.72921 6.10190 34258 ft 429 kts 296°
2026-04-14 20:33 47.74776 6.01709 34262 ft 430 kts 296°
2026-04-14 20:34 47.77441 5.88979 34226 ft 430 kts 295°
2026-04-14 20:34 47.79196 5.80506 34257 ft 429 kts 296°
2026-04-14 20:35 47.80951 5.72059 34265 ft 428 kts 296°
2026-04-14 20:35 47.82709 5.63614 34266 ft 428 kts 296°
2026-04-14 20:36 47.84467 5.55105 34263 ft 428 kts 296°
2026-04-14 20:36 47.86197 5.46682 34237 ft 427 kts 295°
2026-04-14 20:37 47.87939 5.38200 34257 ft 426 kts 295°
2026-04-14 20:37 47.89662 5.29773 34267 ft 424 kts 297°
2026-04-14 20:38 47.92336 5.22241 34268 ft 405 kts 315°
2026-04-14 20:38 47.96030 5.16052 34268 ft 400 kts 319°
2026-04-14 20:39 47.99785 5.09865 34262 ft 400 kts 318°
2026-04-14 20:39 48.03510 5.03708 34237 ft 401 kts 318°
2026-04-14 20:40 48.07238 4.97528 34248 ft 401 kts 317°
2026-04-14 20:40 48.10963 4.91337 34251 ft 402 kts 317°
2026-04-14 20:41 48.14721 4.85088 34261 ft 402 kts 317°
2026-04-14 20:41 48.18472 4.78842 34260 ft 403 kts 317°
2026-04-14 20:42 48.22201 4.72615 34264 ft 402 kts 317°
2026-04-14 20:43 48.27797 4.63228 34241 ft 402 kts 316°
2026-04-14 20:43 48.31508 4.56971 34264 ft 402 kts 316°
2026-04-14 20:44 48.35221 4.50703 34273 ft 402 kts 316°
2026-04-14 20:44 48.38933 4.44434 34272 ft 402 kts 316°
2026-04-14 20:45 48.42659 4.38127 34270 ft 402 kts 316°
2026-04-14 20:45 48.46355 4.31863 34268 ft 401 kts 316°
2026-04-14 20:46 48.50065 4.25544 34250 ft 401 kts 315°
2026-04-14 20:46 48.53746 4.19265 34256 ft 401 kts 315°
2026-04-14 20:47 48.57452 4.12920 34259 ft 401 kts 315°
2026-04-14 20:47 48.61120 4.06615 34267 ft 401 kts 315°
2026-04-14 20:48 48.64808 4.00267 34266 ft 401 kts 315°
2026-04-14 20:48 48.68491 3.93933 34267 ft 401 kts 315°
2026-04-14 20:49 48.72181 3.87564 34267 ft 401 kts 315°
2026-04-14 20:49 48.76016 3.81490 34267 ft 399 kts 319°
2026-04-14 20:50 48.80029 3.75692 34270 ft 399 kts 320°
2026-04-14 20:50 48.84034 3.69886 34270 ft 399 kts 319°
2026-04-14 20:51 48.88012 3.63970 34266 ft 399 kts 319°
2026-04-14 20:51 48.91962 3.58028 34265 ft 399 kts 319°
2026-04-14 20:52 48.95895 3.52108 34268 ft 399 kts 319°
2026-04-14 20:52 48.99859 3.46154 34243 ft 400 kts 318°
2026-04-14 20:53 49.03821 3.40172 34246 ft 400 kts 318°
2026-04-14 20:53 49.07764 3.34207 34247 ft 400 kts 318°
2026-04-14 20:54 49.11699 3.28247 34250 ft 400 kts 318°
2026-04-14 20:54 49.15645 3.22239 34253 ft 400 kts 318°
2026-04-14 20:55 49.19609 3.16196 34255 ft 400 kts 318°
2026-04-14 20:55 49.23543 3.10193 34236 ft 400 kts 318°
2026-04-14 20:56 49.27478 3.04182 34248 ft 401 kts 317°
2026-04-14 20:56 49.31429 2.98140 34246 ft 401 kts 317°
2026-04-14 20:57 49.35390 2.92065 34251 ft 402 kts 317°
2026-04-14 20:57 49.39321 2.86006 34251 ft 401 kts 317°
2026-04-14 20:58 49.43248 2.79937 34239 ft 401 kts 317°
2026-04-14 20:58 49.47167 2.73859 34241 ft 402 kts 317°
2026-04-14 20:59 49.51113 2.67733 34229 ft 402 kts 316°
2026-04-14 20:59 49.55035 2.61633 34232 ft 402 kts 316°
2026-04-14 21:00 49.58957 2.55518 34234 ft 402 kts 316°
2026-04-14 21:00 49.62788 2.49265 34239 ft 403 kts 313°
2026-04-14 21:01 49.66402 2.42629 34241 ft 403 kts 311°
2026-04-14 21:01 49.69970 2.35912 34241 ft 403 kts 311°
2026-04-14 21:02 49.73566 2.29287 34247 ft 403 kts 312°
2026-04-14 21:02 49.77190 2.22694 34231 ft 403 kts 311°
2026-04-14 21:03 49.80831 2.16056 34228 ft 403 kts 311°
2026-04-14 21:03 49.84442 2.09428 34231 ft 404 kts 311°
2026-04-14 21:04 49.88037 2.02794 34230 ft 404 kts 311°
2026-04-14 21:04 49.91653 1.96112 34228 ft 404 kts 311°
2026-04-14 21:05 49.95252 1.89458 34225 ft 404 kts 311°
2026-04-14 21:05 49.98852 1.82788 34236 ft 403 kts 311°
2026-04-14 21:06 50.02453 1.76085 33755 ft 401 kts 310°
2026-04-14 21:06 50.04220 1.72785 32948 ft 403 kts 310°
2026-04-14 21:06 50.06032 1.69400 32188 ft 405 kts 310°
2026-04-14 21:06 50.07952 1.66237 31403 ft 407 kts 318°
2026-04-14 21:07 50.10100 1.63311 30736 ft 408 kts 318°
2026-04-14 21:07 50.12236 1.60416 30250 ft 403 kts 318°
2026-04-14 21:07 50.14321 1.57591 29659 ft 400 kts 318°
2026-04-14 21:07 50.16410 1.54763 29131 ft 395 kts 318°
2026-04-14 21:08 50.18475 1.51959 28611 ft 390 kts 318°
2026-04-14 21:08 50.20513 1.49186 28076 ft 386 kts 318°
2026-04-14 21:08 50.22508 1.46459 27554 ft 382 kts 318°
2026-04-14 21:08 50.24498 1.43735 27063 ft 379 kts 318°
2026-04-14 21:09 50.26483 1.41019 26556 ft 375 kts 318°
2026-04-14 21:09 50.28424 1.38365 26063 ft 372 kts 318°
2026-04-14 21:09 50.30366 1.35702 25575 ft 370 kts 317°
2026-04-14 21:09 50.32301 1.33046 25087 ft 368 kts 317°
2026-04-14 21:10 50.34224 1.30406 24619 ft 366 kts 317°
2026-04-14 21:10 50.36105 1.27816 24151 ft 364 kts 317°
2026-04-14 21:10 50.38004 1.25200 23707 ft 362 kts 317°
2026-04-14 21:10 50.39899 1.22597 23207 ft 359 kts 317°
2026-04-14 21:11 50.41775 1.20016 22786 ft 357 kts 317°
2026-04-14 21:11 50.43622 1.17473 22350 ft 356 kts 317°
2026-04-14 21:11 50.45477 1.14912 21936 ft 354 kts 317°
2026-04-14 21:11 50.47323 1.12358 21521 ft 352 kts 317°
2026-04-14 21:12 50.49142 1.09837 21104 ft 350 kts 317°
2026-04-14 21:12 50.50965 1.07303 20680 ft 348 kts 317°
2026-04-14 21:12 50.52661 1.04610 20243 ft 345 kts 312°
2026-04-14 21:12 50.54276 1.01883 19833 ft 343 kts 312°
2026-04-14 21:13 50.55905 0.99144 19396 ft 341 kts 312°
2026-04-14 21:13 50.57524 0.96421 18972 ft 339 kts 312°
2026-04-14 21:13 50.59112 0.93742 18538 ft 337 kts 312°
2026-04-14 21:14 50.62316 0.88315 17604 ft 335 kts 311°
2026-04-14 21:14 50.63883 0.85654 17157 ft 333 kts 311°
2026-04-14 21:14 50.65458 0.82980 16715 ft 331 kts 311°
2026-04-14 21:14 50.67029 0.80316 16272 ft 330 kts 311°
2026-04-14 21:15 50.68551 0.77632 15634 ft 338 kts 309°
2026-04-14 21:15 50.70074 0.74733 14819 ft 346 kts 307°
2026-04-14 21:15 50.71587 0.71725 14013 ft 352 kts 306°
2026-04-14 21:15 50.73114 0.68647 13136 ft 357 kts 306°
2026-04-14 21:16 50.74635 0.65590 12371 ft 358 kts 306°
2026-04-14 21:16 50.76177 0.62525 11845 ft 352 kts 306°
2026-04-14 21:16 50.77685 0.59552 11664 ft 337 kts 306°
2026-04-14 21:16 50.79109 0.56750 11536 ft 321 kts 306°
2026-04-14 21:17 50.80465 0.54083 11410 ft 306 kts 306°
2026-04-14 21:17 50.81776 0.51502 11237 ft 295 kts 306°
2026-04-14 21:17 50.83054 0.48990 10926 ft 289 kts 306°
2026-04-14 21:17 50.84299 0.46537 10525 ft 288 kts 306°
2026-04-14 21:18 50.85559 0.44044 10078 ft 288 kts 306°
2026-04-14 21:18 50.86389 0.42397 9779 ft 288 kts 306°
2026-04-14 21:18 50.88039 0.39127 9194 ft 286 kts 306°
2026-04-14 21:18 50.89283 0.36664 8749 ft 283 kts 306°
2026-04-14 21:19 50.90099 0.35047 8407 ft 282 kts 305°
2026-04-14 21:19 50.91720 0.31819 7699 ft 281 kts 305°
2026-04-14 21:19 50.92545 0.30173 7373 ft 280 kts 305°
2026-04-14 21:19 50.93742 0.27780 6903 ft 278 kts 305°
2026-04-14 21:20 50.94943 0.25383 6462 ft 275 kts 304°
2026-04-14 21:20 50.96114 0.23021 5923 ft 276 kts 304°
2026-04-14 21:20 50.97295 0.20625 5467 ft 273 kts 304°
2026-04-14 21:20 50.98460 0.18256 5042 ft 270 kts 303°
2026-04-14 21:21 50.99600 0.15927 4615 ft 271 kts 303°
2026-04-14 21:21 51.00921 0.13755 4197 ft 277 kts 320°
2026-04-14 21:21 51.02646 0.12334 3781 ft 283 kts 340°
2026-04-14 21:21 51.04574 0.11886 3523 ft 283 kts
2026-04-14 21:22 51.06560 0.12060 3237 ft 284 kts
2026-04-14 21:22 51.08517 0.12246 2938 ft 282 kts
2026-04-14 21:22 51.10447 0.12427 2789 ft 272 kts
2026-04-14 21:22 51.12295 0.12603 2676 ft 258 kts
2026-04-14 21:23 51.14029 0.12768 2536 ft 244 kts
2026-04-14 21:23 51.15674 0.12877 2330 ft 228 kts 354°
2026-04-14 21:23 51.17089 0.12134 2166 ft 206 kts 322°
2026-04-14 21:23 51.18037 0.10580 1916 ft 191 kts 292°
2026-04-14 21:24 51.18431 0.08626 1894 ft 181 kts 267°
2026-04-14 21:24 51.18316 0.06679 1911 ft 174 kts 250°
2026-04-14 21:24 51.18061 0.04797 1917 ft 173 kts 250°
2026-04-14 21:24 51.17807 0.02919 1932 ft 174 kts 250°
2026-04-14 21:25 51.17552 0.01043 1935 ft 175 kts 250°
2026-04-14 21:25 51.17298 -0.00842 2023 ft 167 kts 250°
2026-04-14 21:25 51.17061 -0.02600 1995 ft 158 kts 249°
2026-04-14 21:25 51.16834 -0.04270 1847 ft 154 kts 248°
2026-04-14 21:26 51.16604 -0.05945 1667 ft 156 kts 249°
2026-04-14 21:26 51.16378 -0.07612 1460 ft 148 kts 250°
2026-04-14 21:26 51.16163 -0.09186 1279 ft 143 kts 250°
2026-04-14 21:26 51.15951 -0.10720 1061 ft 144 kts 251°
2026-04-14 21:27 51.15738 -0.12272 853 ft 145 kts 252°
2026-04-14 21:27 51.15525 -0.13864 662 ft 146 kts 256°
2026-04-14 21:27 51.15308 -0.15425 474 ft 148 kts 256°
2026-04-14 21:27 51.15091 -0.17016 286 ft 146 kts 256°
2026-04-14 21:28 51.14884 -0.18543 217 ft 128 kts 254°
2026-04-14 21:28 51.14725 -0.19673 214 ft 79 kts 257°
2026-04-14 21:28 51.14647 -0.20258 212 ft 32 kts 257°
2026-04-14 21:28 51.14661 -0.20524 211 ft 19 kts 288°
2026-04-14 21:29 51.14692 -0.20677 213 ft 11 kts 296°
2026-04-14 21:29 51.14760 -0.20700 211 ft 13 kts 43°
2026-04-14 21:29 51.14786 -0.20566 214 ft 13 kts 78°
2026-04-14 21:29 51.14808 -0.20413 206 ft 15 kts 77°
2026-04-14 21:30 51.14834 -0.20236 207 ft 17 kts 77°
2026-04-14 21:30 51.14860 -0.20055 213 ft 17 kts 77°
2026-04-14 21:30 51.14885 -0.19864 208 ft 19 kts 79°
2026-04-14 21:30 51.14917 -0.19624 212 ft 25 kts 77°
2026-04-14 21:31 51.14957 -0.19343 213 ft 26 kts 77°
2026-04-14 21:31 51.14995 -0.19055 205 ft 28 kts 78°
2026-04-14 21:31 51.15040 -0.18745 207 ft 29 kts 77°
2026-04-14 21:31 51.15083 -0.18432 206 ft 29 kts 78°
2026-04-14 21:32 51.15126 -0.18114 205 ft 29 kts 77°
2026-04-14 21:32 51.15169 -0.17796 210 ft 29 kts 78°
2026-04-14 21:32 51.15210 -0.17483 205 ft 26 kts 76°
2026-04-14 21:32 51.15249 -0.17223 209 ft 24 kts 79°
2026-04-14 21:33 51.15285 -0.16953 205 ft 25 kts 77°
2026-04-14 21:33 51.15312 -0.16759 209 ft 12 kts 77°
2026-04-14 21:33 51.15351 -0.16635 208 ft 13 kts 75°
2026-04-14 21:33 51.15375 -0.16511 212 ft 10 kts 47°
2026-04-14 21:34 51.15442 -0.16517 210 ft 10 kts 343°
2026-04-14 21:34 51.15465 -0.16568 211 ft 5 kts 307°
2026-04-14 21:34 51.15503 -0.16591 208 ft 7 kts 348°
2026-04-14 21:34 51.15523 -0.16598 205 ft 1 kts 348°
2026-04-14 21:35 51.15526 -0.16599 205 ft 0 kts 348°